This is the latest recevied weather packets stored in our database for station/object HUGOCO. If no packets are shown the sender has not sent any weather packets the latest 10 day(s).
| Time | Temp. | Humidity | Pressure | Rain* | Wind** | Luminosity | Snow |
|---|---|---|---|---|---|---|---|
| 1777815965 | 11.11° C | 49% | 1015.4 hPa | 0 mm | - | - | - |
| 1777815665 | 10.56° C | 49% | 1015.4 hPa | 0 mm | - | - | - |
| 1777815365 | 10.56° C | 52% | 1015.6 hPa | 0 mm | - | - | - |
| 1777815065 | 10° C | 52% | 1015.6 hPa | 0 mm | - | - | - |
| 1777814765 | 9.44° C | 46% | 1015.6 hPa | 0 mm | - | - | - |
| 1777814465 | 9.44° C | 49% | 1015.5 hPa | 0 mm | - | - | - |
| 1777814165 | 8.89° C | 47% | 1015.5 hPa | 0 mm | - | - | - |
| 1777813865 | 8.89° C | 51% | 1015.6 hPa | 0 mm | - | - | - |
| 1777813565 | 9.44° C | 45% | 1015.6 hPa | 0 mm | - | - | - |
| 1777813265 | 10° C | 43% | 1015.6 hPa | 0 mm | - | - | - |
| 1777812965 | 9.44° C | 45% | 1015.4 hPa | 0 mm | - | - | - |
| 1777812665 | 8.89° C | 47% | 1015.4 hPa | 0 mm | - | - | - |
| 1777812365 | 8.33° C | 48% | 1015.4 hPa | 0 mm | - | - | - |
| 1777812065 | 8.33° C | 48% | 1015.5 hPa | 0 mm | - | - | - |
| 1777811765 | 7.78° C | 49% | 1015.5 hPa | 0 mm | - | - | - |
| 1777811465 | 8.33° C | 48% | 1015.5 hPa | 0 mm | - | - | - |
| 1777811165 | 7.78° C | 48% | 1015.5 hPa | 0 mm | - | - | - |
| 1777810865 | 7.78° C | 48% | 1015.5 hPa | 0 mm | - | - | - |
| 1777810565 | 7.78° C | 48% | 1015.4 hPa | 0 mm | - | - | - |
| 1777810265 | 7.78° C | 49% | 1015.4 hPa | 0 mm | - | - | - |
| 1777809965 | 8.33° C | 47% | 1015.5 hPa | 0 mm | - | - | - |
| 1777809665 | 7.22° C | 50% | 1015.3 hPa | 0 mm | - | - | - |
| 1777809365 | 7.22° C | 52% | 1015.3 hPa | 0 mm | - | - | - |
| 1777809065 | 7.78° C | 51% | 1015.3 hPa | 0 mm | - | - | - |
| 1777808765 | 8.33° C | 50% | 1015.3 hPa | 0 mm | - | - | - |
* Rain latest hour (hover to see other rain measurements)
** Current wind speed in m/s (hover to see current wind gust speed)